Regional Weather Roundup
Issued by NWS

Home | Current Version | Previous Version | Graphics & Text | Print | Product List | Glossary On
Versions: 1 2 3 4 5 6 7 8 9 10 11 12 13 14 15 16 17 18 19 20 21 22 23 24 25 26 27 28 29 30 31 32 33 34 35 36 37 38 39 40 41 42 43 44 45 46 47 48 49 50
000
ASUS43 KMPX 250110
RWRMN
WEATHER ROUNDUP FOR MINNESOTA
NATIONAL WEATHER SERVICE TWIN CITIES/CHANHASSEN MN
800 PM CDT THU MAY 24 2018


NOTE: "FAIR" INDICATES FEW OR NO CLOUDS BELOW 12,000 FEET WITH NO
SIGNIFICANT WEATHER AND/OR OBSTRUCTIONS TO VISIBILITY. N/A MEANS
CURRENT SKY AND/OR WEATHER CONDITIONS ARE NOT AVAILABLE.

MNZ060>063-068>070-250200-
   Twin Cities Metro

CITY           SKY/WX    TMP DP  RH WIND       PRES   REMARKS
TWIN CITIES    TSTM      69  67  93 W16G61    29.93R FOG
ST PAUL        TSTM      68  64  87 W22G38    29.92R FOG
CRYSTAL        TSTM      70  62  76 S13       29.89R
BLAINE         TSTM      79  59  50 SW17G30   29.90R
LAKEVILLE      CLOUDY    72  63  73 NW12      29.92R THUNDER
EDEN PRAIRIE   TSTM      73  58  59 N12       29.87F
SOUTH ST PAUL  MOCLDY    73  64  75 NW22G36   29.88R THUNDER
LAKE ELMO      FAIR      82  63  51 SW20G25   29.90R
$$
MNZ001>005-007-008-013>017-022>024-027-028-250200-
   Northwest Minnesota

CITY           SKY/WX    TMP DP  RH WIND       PRES   REMARKS
BEMIDJI        FAIR      82  57  42 S3        29.78S
HALLOCK        FAIR      88  45  22 S16       29.62F
ROSEAU         FAIR      84  64  51 S8        29.70S
WARROAD        FAIR      82  64  54 S12       29.71F
THIEF RVR FALL FAIR      85  57  38 S16       29.71F
CROOKSTON      FAIR      88  52  29 SW18G24   29.68S
FOSSTON        FAIR      82  54  36 SE8       29.75S
DETROIT LAKES  FAIR      82  59  44 SW8       29.78S
MOORHEAD       FAIR      86  57  37 S15G21    29.72S
PARK RAPIDS    FAIR      83  59  44 S7        29.78F
MAHNOMEN       FAIR      82  59  45 S15       29.74S
$$
MNZ006-009>011-018-025>026-250200-
   North Central Minnesota

CITY           SKY/WX    TMP DP  RH WIND       PRES   REMARKS
BAUDETTE       FAIR      80  64  58 SE9       29.74F
FLAG ISLAND    FAIR      73  61  64 SE13      29.71F
INTL FALLS     FAIR      76  65  68 S5        29.78F
WASKISH          N/A     79  68  69 SE8       29.76F
BIG FORK       FAIR      73  66  78 SE3       29.81F
LONGVILLE      FAIR      82  63  51 S7        29.80F
GRAND RAPIDS   FAIR      80  66  62 SE5       29.83F
CRANE LAKE     FAIR      64  64 100 CALM      29.83F
ORR            FAIR      68  64  88 CALM      29.79F
COOK           FAIR      70  64  83 CALM      29.83F
WALKER         FAIR      82  57  42 S6        29.78F
$$
MNZ012-019>021-037-250200-
   Northeast Minnesota

CITY           SKY/WX    TMP DP  RH WIND       PRES   REMARKS
DULUTH         FAIR      69  63  81 SE7       29.86F
ELY            FAIR      70  61  73 CALM      29.85F
HIBBING        FAIR      77  66  68 S7        29.82F
EVELETH        FAIR      77  66  69 S7        29.84F
DULUTH HARBOR  FOG       54  52  94 CALM      29.86F VSB 1/4
TWO HARBORS    FAIR      68  61  77 CALM      29.84F
SILVER BAY     FAIR      73  66  78 CALM      29.84F
GRAND MARAIS     N/A     52  49  89 NE5       29.86F
G MARAIS ARPRT FAIR      66  57  72 CALM      29.91F
$$
MNZ029>031-032-039>041-046>048-054>057-064-250200-
   West Central Minnesota

CITY           SKY/WX    TMP DP  RH WIND       PRES   REMARKS
FERGUS FALLS   FAIR      84  63  48 SW9       29.71F
WHEATON        CLOUDY    86  59  39 SW6       29.77F
MORRIS         CLOUDY    81  64  57 S5        29.79S
ALEXANDRIA     MOCLDY    82  61  48 S28G44    29.84R
ELBOW LAKE     MOCLDY    85  60  42 SW10      29.77F
WADENA         FAIR      82  63  51 S5        29.79S
GLENWOOD       RAIN      72  64  78 S9        29.84S
APPLETON       CLOUDY    88  54  31 SW16G24   29.78R
BENSON         LGT RAIN  75  63  64 S3G20     29.82S
ORTONVILLE     CLOUDY    84  61  45 S8        29.79R
MADISON        PTCLDY    88  57  35 SW15      29.80R
WILLMAR        FAIR      73  64  73 SE6       29.85S
$$
MNZ033>034-036-042>043-049>051-058-059-250200-
   Central Minnesota

CITY           SKY/WX    TMP DP  RH WIND       PRES   REMARKS
ST CLOUD       FAIR      78  60  53 S14       29.84R
SAUK CENTRE    FAIR      77  58  52 S9        29.82S
PAYNESVILLE    FAIR      76  58  52 SE8       29.84S
PINE RIVER     FAIR      82  63  51 S7        29.83F
BRAINERD       FAIR      85  62  46 S9        29.81F
STAPLES        FAIR      81  61  50 S6        29.80S
LONG PRAIRIE   FAIR      77  63  61 SE8       29.82S
LITTLE FALLS   FAIR      81  64  57 S7        29.83R
LITCHFIELD     FAIR      75  63  64 SE5       29.85S
BUFFALO        FAIR      71  60  69 S5        29.86F
MAPLE LAKE     FAIR      74  62  64 SE3       29.85F
HUTCHINSON     FAIR      72  66  81 CALM      29.86F
$$
MNZ037-044-045-052-053-250200-
   East Central Minnesota

CITY           SKY/WX    TMP DP  RH WIND       PRES   REMARKS
PRINCETON      LGT RAIN  79  66  65 S8        29.85S
MORA           FAIR      77  61  57 S8        29.85F
CAMBRIDGE      LGT RAIN  82  64  54 S5        29.83F
RUSH CITY      FAIR      83  61  47 S3        29.84F
MOOSE LAKE     FAIR      72  64  78 CALM      29.83F
HINCKLEY       FAIR      79  66  65 S6        29.84S
CLOQUET        FAIR      66  61  82 SE3       29.86F
MCGREGOR       FAIR      79  70  73 SE3       29.83F
$$
MNZ071>073-080-081-089-090-097-098-250200-
   Southwest Minnesota

CITY           SKY/WX    TMP DP  RH WIND       PRES   REMARKS
MONTEVIDEO     PTCLDY    77  68  73 S7        29.82S
CANBY          CLOUDY    84  59  42 S6        29.82F
MARSHALL       CLOUDY    81  62  52 SW10      29.83F
REDWOOD FALLS  PTCLDY    81  60  48 SW9       29.84S
OLIVIA         PTCLDY    75  70  83 SE6       29.84S
PIPESTONE      CLOUDY    77  61  57 SW15      29.90R
WINDOM         MOCLDY    81  54  39 SW3       29.87F
WORTHINGTON    LGT RAIN  76  61  59 SW13      29.91R
JACKSON        PTCLDY    81  57  44 SW9       29.89F
TRACY          CLOUDY    82  59  46 S10       29.85S
SLAYTON        CLOUDY    80  59  47 S17G24    29.88S
$$
MNZ065>067-074>077-082>085-091>093-250200-
   South Central Minnesota

CITY           SKY/WX    TMP DP  RH WIND       PRES   REMARKS
MANKATO        FAIR      88  58  36 SW13      29.86S
NEW ULM        CLOUDY    86  57  37 SW9       29.85S
ST JAMES       PTCLDY    84  57  39 S8        29.87S
FAIRMONT       PTCLDY    85  61  44 SW7       29.88F
GLENCOE        FAIR      72  66  81 E9        29.86F
FARIBAULT      TSTM      66  66 100 SE23G40   29.92R VSB 1
OWATONNA       MOCLDY    86  63  45 SW15G23   29.89S THUNDER
WASECA         CLOUDY    79  64  61 W20G30    29.90R
ALBERT LEA     FAIR      82  54  36 S9        29.90F
$$
MNZ078>079-086>088-094>096-250200-
   Southeast Minnesota

CITY           SKY/WX    TMP DP  RH WIND       PRES   REMARKS
ROCHESTER      FAIR      82  58  43 S14       29.93S
RED WING       MOCLDY    86  52  30 S5        29.86F
STANTON        TSTM      76  66  72 E7        29.87F
DODGE CENTER   FAIR      81  55  41 S12       29.92F
WINONA         FAIR      81  61  50 S3        29.91F
AUSTIN         FAIR      82  57  42 S9G18     29.92S
PRESTON        FAIR      82  58  44 S12       29.94F
$$
ABBREVIATIONS USED IN REMARKS
   TC - TEMPERATURES IN CELSIUS
  WCI - WIND CHILL INDEX
   HX - HEAT INDEX
  VSB - VISIBILITY
$$




USA.gov is the U.S. government's official web portal to all federal, state and local government web resources and services.